Вернуться в каталог

DELTA 1 DEB

АктивенSSO
NORAD 42094·DEBRIS·🇺🇸 United States

Запущен Dec 15, 1968 с Vandenberg Space Force Base

Loading…

Ближайшие Пролёты (ближайшие 24 часа)

TLE

УстаревшееSource: Space-Track

Эпоха: Aug 27, 2026, 10:09 UTC

1 42094U 68114W   26239.42326983  .00000017  00000-0  43452-3 0  9997
2 42094 101.5830 123.5566 0195315 219.7812 138.8790 12.37386112304840

Отслеживайте DELTA 1 DEB в реальном времени с AllMySat

Download on the App Store